Location: Chiroubles
(46.1812°N, 4.6660°E)
Time: 17:34:11
(UTC+00:00)

Explorer 11/Cluster Stage 4 - Visible Passes

Search period start: 04 December 2020 00:00
Search period end: 14 December 2020 00:00
Orbit: 467 x 1258 km, 28.8° (Epoch: 03 December)

Date Brightness Start Highest point End Pass type
(mag) Time Alt. Az. Time Alt. Az. Time Alt. Az.
04 Dec 9.1 18:31:03 10° SSW 18:35:23 16° SSE 18:36:46 15° SSE visible
04 Dec 9.7 20:18:12 10° SW 20:18:53 12° SW 20:18:53 12° SW visible
05 Dec 9.1 18:19:22 10° SSW 18:24:12 17° SSE 18:26:32 15° SSE visible
05 Dec 9.5 20:06:48 10° SW 20:08:39 15° SW 20:08:39 15° SW visible
06 Dec 9.1 18:07:48 10° SSW 18:12:59 18° SSE 18:16:16 14° SE visible
06 Dec 9.3 19:55:27 10° SW 19:58:24 17° SSW 19:58:24 17° SSW visible
07 Dec 9.2 17:56:20 10° SSW 18:01:46 19° S 18:06:02 13° SE visible
07 Dec 9.2 19:44:09 10° SW 19:48:10 19° SSW 19:48:10 19° SSW visible
08 Dec 9.2 17:44:56 10° SW 17:50:32 20° S 17:55:47 11° SE visible
08 Dec 9.1 19:32:55 10° SW 19:37:55 20° SSW 19:37:55 20° SSW visible
09 Dec 9.2 17:33:37 10° SW 17:39:19 21° S 17:45:01 10° SE visible
09 Dec 9.1 19:21:43 10° SW 19:27:22 20° S 19:27:42 20° S visible
10 Dec 9.2 17:22:22 10° SW 17:28:04 21° S 17:33:53 10° SE visible
10 Dec 9.1 19:10:36 10° SW 19:16:07 20° S 19:17:32 19° S visible
11 Dec 9.3 17:11:11 10° SW 17:16:51 22° S 17:22:42 10° SE visible
11 Dec 9.2 18:59:31 10° SW 19:04:54 19° SSW 19:07:25 17° S visible
12 Dec 9.3 17:00:04 10° SW 17:05:38 21° S 17:11:27 10° SE visible
12 Dec 9.3 18:48:32 10° SW 18:53:39 18° SSW 18:57:22 13° SSE visible
13 Dec 9.3 16:49:01 10° SW 16:54:25 21° S 17:00:09 10° SE visible
13 Dec 9.5 18:37:37 10° SW 18:42:25 17° SSW 18:47:19 10° SSE visible
